Find Tongxin Jishu Shiyan 22

NORAD ID: 66990 Int'l Des: 2025-290 Owner: ZZB/SAST Country: CN operational
HEOCIRCULARGSO

当前视图

正在加载3D地球...

关于 Tongxin Jishu Shiyan 22

正在加载描述...

即将过境

Passes for default location (London). Set your location on the main map for personalized predictions.

高度历史

Loading altitude history...

两行轨道根数

1 66990U 25290A 26145.93411812 -.00000009 00000-0 00000-0 0 9995
2 66990 1.5829 286.2917 0001874 348.7042 11.3604 1.00274825 1803
Epoch: May 25, 2026 • Age: 17 hours

当前状态

高度 35786.7 km
速度 3.07 km/s
星下点 -1.50°S, 66.54°E
发射日期 Dec 9, 2025
运行时间 0.4 years
类型 other

技术详情

分类 Payload
质量 5000.00 kg
干质量 6000.00 kg
总质量 5000.00 kg
长度 5.00 m
直径 4.00 m
跨度 30.00 m
形状 Box+ 2 pan+dish
制造商 SAST
平台类型 TJSxx
阶段状态 In Orbit
所有者/国家 ZZB/SAST/CN

Most Searched